TimeEDT,TemperatureF,Dew PointF,Humidity,Sea Level PressureIn,VisibilityMPH,Wind Direction,Wind SpeedMPH,Gust SpeedMPH,PrecipitationIn,Events,Conditions,WindDirDegrees,DateUTC
12:00 AM,19.4,14.0,80,29.89,5.0,SSW,12.7,-,N/A,,Unknown,210,2012-10-09 04:00:00
12:01 AM,19.4,14.0,80,29.87,5.0,SSW,12.7,-,N/A,Snow,Light Snow,210,2012-10-09 04:01:00
12:02 AM,19.4,14.0,80,29.87,5.0,SSW,12.7,-,N/A,,Unknown,210,2012-10-09 04:02:00
12:14 AM,19.4,14.0,80,29.87,7.0,SSW,11.5,-,N/A,Snow,Light Snow,210,2012-10-09 04:14:00
12:25 AM,19.4,15.8,86,29.87,2.4,SSW,12.7,-,N/A,Snow,Light Snow,210,2012-10-09 04:25:00
12:49 AM,19.4,15.8,86,29.87,9.0,SW,9.2,-,N/A,,Unknown,230,2012-10-09 04:49:00
12:58 AM,21.2,14.0,74,29.87,9.0,WSW,12.7,-,N/A,,Overcast,240,2012-10-09 04:58:00
1:00 AM,21.2,14.0,74,29.89,9.0,WSW,12.7,-,N/A,,Overcast,240,2012-10-09 05:00:00
1:49 AM,19.4,14.0,80,29.86,9.0,SSW,11.5,-,N/A,Snow,Light Snow,210,2012-10-09 05:49:00
2:00 AM,19.4,14.0,80,29.90,3.5,SSW,10.4,-,N/A,Snow,Light Snow,210,2012-10-09 06:00:00
2:09 AM,19.4,14.0,80,29.87,3.5,SSW,11.5,-,N/A,Snow,Light Snow,210,2012-10-09 06:09:00
2:13 AM,19.4,14.0,80,29.87,2.4,SSW,11.5,-,N/A,Snow,Light Snow,210,2012-10-09 06:13:00
2:20 AM,19.4,14.0,80,29.87,1.5,SW,11.5,-,N/A,Snow,Light Snow,220,2012-10-09 06:20:00
2:21 AM,19.4,14.0,80,29.87,1.4,SW,11.5,-,N/A,Snow,Light Snow,220,2012-10-09 06:21:00
2:25 AM,19.4,14.0,80,29.87,1.0,SSW,11.5,-,N/A,Snow,Light Snow,210,2012-10-09 06:25:00
2:26 AM,19.4,14.0,80,29.87,1.0,SSW,11.5,-,N/A,Snow,Light Snow,210,2012-10-09 06:26:00
2:27 AM,19.4,14.0,80,29.87,0.6,SSW,11.5,-,N/A,Snow,Light Snow,210,2012-10-09 06:27:00
2:39 AM,19.4,15.8,86,29.87,1.0,SW,13.8,-,N/A,Snow,Light Snow,220,2012-10-09 06:39:00
2:45 AM,19.4,15.8,86,29.87,1.4,SW,12.7,-,N/A,Snow,Light Snow,220,2012-10-09 06:45:00
3:00 AM,19.4,15.8,86,29.89,1.6,SSW,11.5,-,N/A,Snow,Light Snow,210,2012-10-09 07:00:00
3:20 AM,19.4,15.8,86,29.87,2.5,SW,12.7,-,N/A,Snow,Light Snow,220,2012-10-09 07:20:00
3:45 AM,19.4,15.8,86,29.87,2.5,SW,11.5,-,N/A,Snow,Light Snow,220,2012-10-09 07:45:00
3:48 AM,19.4,15.8,86,29.87,3.0,SW,13.8,-,N/A,Snow,Light Snow,220,2012-10-09 07:48:00
4:00 AM,19.4,14.0,80,29.88,6.0,SW,13.8,-,N/A,Snow,Light Snow,220,2012-10-09 08:00:00
4:02 AM,19.4,14.0,80,29.85,6.0,SW,15.0,-,N/A,,Overcast,220,2012-10-09 08:02:00
4:12 AM,19.4,15.8,86,29.87,2.5,SW,15.0,-,N/A,,Overcast,220,2012-10-09 08:12:00
4:31 AM,19.4,15.8,86,29.87,5.0,SSW,13.8,-,N/A,Snow,Light Snow,210,2012-10-09 08:31:00
5:00 AM,19,14,74,29.88,6,SSW,13.8,,,Snow,Light Snow,210,2012-10-09 09:00:00
5:00 AM,19.4,14.0,80,29.88,6.0,SSW,13.8,-,N/A,Snow,Light Snow,210,2012-10-09 09:00:00
5:01 AM,19.4,14.0,80,29.86,6.0,SSW,13.8,-,N/A,,Overcast,210,2012-10-09 09:01:00
6:00 AM,19.4,15.8,86,29.87,4.0,SSW,12.7,-,N/A,,Overcast,210,2012-10-09 10:00:00
6:08 AM,19.4,15.8,86,29.83,2.4,SSW,13.8,-,N/A,,Overcast,200,2012-10-09 10:08:00
6:28 AM,19.4,15.8,86,29.84,2.5,South,12.7,-,N/A,Snow,Light Snow,190,2012-10-09 10:28:00
6:48 AM,19.4,14.0,80,29.84,4.0,South,12.7,-,N/A,Snow,Light Snow,190,2012-10-09 10:48:00
6:50 AM,19.4,14.0,80,29.84,4.0,South,11.5,-,N/A,,Overcast,190,2012-10-09 10:50:00
7:00 AM,19.4,14.0,80,29.86,3.5,South,11.5,-,N/A,,Overcast,190,2012-10-09 11:00:00
8:00 AM,20,14,67,29.86,9,South,13.8,,,,Overcast,190,2012-10-09 12:00:00
8:00 AM,19.4,14.0,80,29.86,9.0,South,13.8,-,N/A,,Overcast,190,2012-10-09 12:00:00
8:46 AM,21.2,14.0,74,29.83,9.0,SSW,17.3,-,N/A,,Overcast,200,2012-10-09 12:46:00
9:00 AM,21.2,14.0,74,29.85,9.0,SSW,16.1,-,N/A,,Overcast,200,2012-10-09 13:00:00
9:58 AM,21.2,15.8,80,29.81,9.0,SSW,17.3,-,N/A,,Overcast,210,2012-10-09 13:58:00
10:00 AM,21.2,15.8,80,29.83,9.0,SSW,16.1,-,N/A,,Overcast,200,2012-10-09 14:00:00
11:00 AM,21,16,71,29.84,9,SSW,16.1,,,,Overcast,210,2012-10-09 15:00:00
11:00 AM,21.2,15.8,80,29.84,9.0,SSW,15.0,-,N/A,Snow,Light Snow,200,2012-10-09 15:00:00
11:15 AM,-9999,-9999,N/A,-9999,2.5,SSW,11.5,-,N/A,,Unknown,200,2012-10-09 15:15:00
11:18 AM,-9999,-9999,N/A,-9999,2.0,SSW,13.8,-,N/A,,Unknown,200,2012-10-09 15:18:00
11:40 AM,-9999,-9999,N/A,-9999,1.5,SSW,15.0,-,N/A,,Unknown,200,2012-10-09 15:40:00
11:53 AM,-9999,-9999,N/A,-9999,1.2,SSW,16.1,-,N/A,,Unknown,200,2012-10-09 15:53:00
12:00 PM,21.2,17.6,86,29.83,1.0,SSW,16.1,-,N/A,Snow,Light Snow,200,2012-10-09 16:00:00
12:13 PM,-9999,-9999,N/A,-9999,0.8,South,15.0,-,N/A,,Unknown,190,2012-10-09 16:13:00
12:30 PM,-9999,-9999,N/A,-9999,1.2,SSW,13.8,-,N/A,,Unknown,200,2012-10-09 16:30:00
1:00 PM,21.2,17.6,86,29.83,1.2,SSW,16.1,-,N/A,Snow,Light Snow,210,2012-10-09 17:00:00
1:31 PM,-9999,-9999,N/A,-9999,2.0,SSW,15.0,-,N/A,,Unknown,200,2012-10-09 17:31:00
1:38 PM,-9999,-9999,N/A,-9999,1.5,SSW,17.3,-,N/A,,Unknown,210,2012-10-09 17:38:00
2:00 PM,22,18,76,29.82,2,SSW,16.1,,,,Overcast,210,2012-10-09 18:00:00
2:00 PM,21.2,17.6,86,29.82,1.5,SSW,16.1,-,N/A,Snow,Light Snow,210,2012-10-09 18:00:00
2:08 PM,-9999,-9999,N/A,-9999,2.2,SSW,15.0,-,N/A,,Unknown,210,2012-10-09 18:08:00
2:24 PM,-9999,-9999,N/A,-9999,1.5,SSW,19.6,-,N/A,,Unknown,210,2012-10-09 18:24:00
2:35 PM,-9999,-9999,N/A,-9999,1.8,SSW,16.1,-,N/A,,Unknown,200,2012-10-09 18:35:00
2:40 PM,-9999,-9999,N/A,-9999,5.0,SSW,15.0,-,N/A,,Unknown,200,2012-10-09 18:40:00
2:56 PM,-9999,-9999,N/A,-9999,9.0,SSW,16.1,-,N/A,,Overcast,200,2012-10-09 18:56:00
3:00 PM,21.2,15.8,80,29.82,9.0,SSW,15.0,-,N/A,,Overcast,200,2012-10-09 19:00:00
4:00 PM,21.2,15.8,80,29.81,9.0,SSW,12.7,-,N/A,,Overcast,200,2012-10-09 20:00:00
4:19 PM,-9999,-9999,N/A,-9999,9.0,SSW,17.3,-,N/A,,Unknown,210,2012-10-09 20:19:00
5:00 PM,22,17,72,29.80,3,SSW,18.4,,,Snow,Light Snow,200,2012-10-09 21:00:00
5:00 PM,23.0,17.6,80,29.81,3.0,SSW,18.4,-,N/A,Snow,Light Snow,200,2012-10-09 21:00:00
5:09 PM,-9999,-9999,N/A,-9999,2.5,SSW,17.3,-,N/A,,Unknown,200,2012-10-09 21:09:00
5:27 PM,-9999,-9999,N/A,-9999,7.0,South,19.6,-,N/A,,Unknown,190,2012-10-09 21:27:00
5:45 PM,-9999,-9999,N/A,-9999,9.0,South,18.4,24.2,N/A,,Overcast,180,2012-10-09 21:45:00
6:00 PM,21.2,15.8,80,29.80,9.0,South,18.4,-,N/A,,Overcast,180,2012-10-09 22:00:00
7:00 PM,23.0,15.8,74,29.79,9.0,South,20.7,-,N/A,Snow,Low Drifting Snow,190,2012-10-09 23:00:00
7:29 PM,23.0,15.8,74,29.76,9.0,SSW,20.7,-,N/A,,Overcast,200,2012-10-09 23:29:00
8:00 PM,23,17,68,29.79,9,South,18.4,,,,Overcast,190,2012-10-10 00:00:00
8:00 PM,23.0,17.6,80,29.79,9.0,South,19.6,-,N/A,,Overcast,190,2012-10-10 00:00:00
8:44 PM,23.0,17.6,80,29.76,7.0,SSW,17.3,-,N/A,Snow,Light Snow,200,2012-10-10 00:44:00
9:00 PM,23.0,17.6,80,29.78,3.5,South,16.1,-,N/A,Snow,Light Snow,190,2012-10-10 01:00:00
10:00 PM,23.0,17.6,80,29.77,9.0,South,18.4,-,N/A,Snow,Light Snow,190,2012-10-10 02:00:00
10:05 PM,23.0,15.8,74,29.75,9.0,South,18.4,-,N/A,,Overcast,190,2012-10-10 02:05:00
10:24 PM,23.0,17.6,80,29.74,9.0,South,16.1,-,N/A,,Overcast,190,2012-10-10 02:24:00
11:00 PM,23,16,66,29.76,9,South,18.4,,,,Overcast,180,2012-10-10 03:00:00
11:00 PM,23.0,15.8,74,29.76,9.0,South,18.4,-,N/A,,Overcast,190,2012-10-10 03:00:00
11:43 PM,23.0,17.6,80,29.74,9.0,SSW,18.4,-,N/A,,Overcast,200,2012-10-10 03:43:00